Weather History for Corona, CA

Change the Weather History Date:

Wednesday, February 29, 2012

  Actual Average (KONT) Record (KONT)
Temperature  
Mean Temperature 44 °F 57 °F  
Max Temperature 59 °F 68 °F 82 °F (1968)
Min Temperature 30 °F 46 °F 34 °F (1984)
Degree Days  
Heating Degree Days 20 8  
Month to date heating degree days 274  
Since 1 July heating degree days 1165  
Cooling Degree Days 0 0  
Month to date cooling degree days 3  
Year to date cooling degree days 6  
Moisture  
Dew Point 39 °F    
Average Humidity 78    
Maximum Humidity 100    
Minimum Humidity 39    
Precipitation  
Precipitation 0.01 in 0.12 in 0.59 in (1960)
Month to date precipitation 3.39  
Year to date precipitation 6.70  
Since 1 July precipitation 11.36  
Snow  
Snow 0.00 in - - ()
Month to date snowfall  
Year to date snowfall  
Since 1 July snowfall  
Snow Depth -    
Sea Level Pressure  
Sea Level Pressure 30.24 in    
Wind  
Wind Speed 3 mph (West)    
Max Wind Speed 14 mph    
Max Gust Speed 18 mph    
Visibility 9 miles    
Events      
T = Trace of Precipitation, MM = Missing Value Source: NWS Daily Summary

Daily Weather History Graph

Daily Weather History Graph

Search for Another Location

Airport:

Trip Planner

Search our weather history database for the weather conditions in past years. The results will help you decide how hot, cold, wet, or windy it might be!

Date:

Astronomy

Feb. 29, 2012 Rise Set
Actual Time 6:19 AM PST 5:46 PM PST
Civil Twilight 5:54 AM PST 6:11 PM PST
Nautical Twilight 5:25 AM PST 6:40 PM PST
Astronomical Twilight 4:56 AM PST 7:09 PM PST
Moon 10:35 AM PST (2/29) 12:16 AM PST (2/29)
Length of Visible Light 12h 17m
Length of Day
11h 27m
Waxing Crescent, 48% of the Moon is Illuminated
Feb 29
Waxing Crescent
Feb 29
First Quarter
Mar 8
Full
Mar 14
Last Quarter
Mar 22
New

Hourly Weather History & Observations

Time (PST) Temp. Dew Point Humidity Pressure Visibility Wind Dir Wind Speed Gust Speed Precip Events Conditions
12:56 AM 36.9 °F 36.9 °F 100% 30.29 in 10.0 mi Calm Calm - N/A   Clear
1:56 AM 36.0 °F 36.0 °F 100% 30.27 in 10.0 mi Calm Calm - N/A   Clear
2:56 AM 32.9 °F 32.9 °F 100% 30.26 in 10.0 mi Calm Calm - N/A   Clear
3:56 AM 32.0 °F 32.0 °F 100% 30.25 in 9.0 mi Calm Calm - N/A   Clear
4:56 AM 34.0 °F 34.0 °F 100% 30.25 in 10.0 mi Calm Calm - N/A   Clear
5:56 AM 32.9 °F 32.9 °F 100% 30.27 in 10.0 mi Calm Calm - N/A   Clear
6:27 AM 30.2 °F 30.2 °F 100% 30.26 in 1.5 mi Calm Calm - N/A   Clear
6:29 AM 30.2 °F 30.2 °F 100% 30.27 in 1.0 mi Calm Calm - N/A   Clear
6:37 AM 30.2 °F 30.2 °F 100% 30.27 in 1.8 mi Calm Calm - N/A   Clear
6:44 AM 30.2 °F 30.2 °F 100% 30.27 in 3.0 mi Calm Calm - N/A   Clear
6:56 AM 31.1 °F 31.1 °F 100% 30.28 in 10.0 mi Calm Calm - N/A   Clear
8:56 AM 46.9 °F 38.8 °F 73% 30.30 in 10.0 mi Calm Calm - N/A   Clear
9:56 AM 52.0 °F 38.8 °F 61% 30.30 in 10.0 mi Variable 3.5 mph - 0.01 in   Clear
10:56 AM 55.9 °F 36.9 °F 49% 30.28 in 10.0 mi Variable 4.6 mph - N/A   Clear
11:56 AM 57.9 °F 34.0 °F 41% 30.26 in 10.0 mi WNW 9.2 mph - N/A   Clear
12:56 PM 59.0 °F 34.0 °F 39% 30.24 in 10.0 mi NW 11.5 mph 18.4 mph N/A   Clear
1:56 PM 59.9 °F 36.0 °F 41% 30.22 in 10.0 mi WNW 10.4 mph - N/A   Clear
2:56 PM 59.9 °F 37.9 °F 44% 30.20 in 10.0 mi West 13.8 mph - N/A   Clear
4:56 PM 55.9 °F 41.0 °F 57% 30.20 in 10.0 mi WSW 12.7 mph - N/A   Clear
5:56 PM 54.0 °F 43.0 °F 66% 30.20 in 10.0 mi Calm Calm - N/A   Clear
6:56 PM 52.9 °F 45.0 °F 74% 30.21 in 10.0 mi Variable 4.6 mph - N/A   Clear
7:56 PM 52.9 °F 45.0 °F 74% 30.20 in 10.0 mi West 6.9 mph - N/A   Scattered Clouds
8:56 PM 52.0 °F 45.0 °F 77% 30.21 in 10.0 mi West 5.8 mph - N/A   Partly Cloudy
9:18 PM 51.8 °F 44.6 °F 76% 30.21 in 10.0 mi WNW 6.9 mph - N/A   Mostly Cloudy
9:56 PM 52.9 °F 45.9 °F 77% 30.20 in 10.0 mi Variable 4.6 mph - N/A   Overcast
10:11 PM 51.8 °F 46.4 °F 82% 30.21 in 10.0 mi Variable 3.5 mph - N/A   Overcast
10:20 PM 53.6 °F 46.4 °F 77% 30.21 in 10.0 mi WSW 8.1 mph - N/A   Overcast
10:47 PM 53.6 °F 46.4 °F 77% 30.20 in 10.0 mi West 8.1 mph - N/A   Overcast
10:56 PM 52.9 °F 46.9 °F 80% 30.19 in 10.0 mi West 5.8 mph - N/A   Overcast
11:13 PM 53.6 °F 46.4 °F 77% 30.19 in 10.0 mi SW 8.1 mph - N/A   Overcast
11:26 PM 53.6 °F 46.4 °F 77% 30.19 in 10.0 mi WSW 8.1 mph - N/A   Mostly Cloudy
11:56 PM 52.9 °F 46.9 °F 80% 30.18 in 10.0 mi WSW 6.9 mph - N/A   Mostly Cloudy